#timestamp,LO_Frequency,Hit,StdDev 
1611950415.5,286047007.0,N
1611950435.3,286047011.4,N
1611950455.2,286047009.9,N
1611950475.0,286047011.8,N
1611950475.9,286047011.8,N
1611950495.8,286047009.3,N
1611950515.6,286047014.0,N
1611950535.4,286047012.1,N
1611950555.3,286047012.2,N
1611950575.1,286047007.5,N
1611950595.9,286047001.7,N
1611950615.7,286047007.3,N
1611950635.5,286047008.7,N
1611950655.4,286047008.1,N
1611950675.2,286047015.3,N
1611950695.0,286047016.4,N
1611950695.9,286047016.4,N
1611950715.8,286047017.1,N
1611950735.6,286047016.5,N
1611950755.5,286047019.9,N
1611950775.3,286047022.7,Y
1611950795.1,286047015.3,P
1611950815.9,286047011.4,N
1611950835.7,286047015.1,P
1611950855.5,286047021.3,Y
1611950875.4,286047003.2,P
1611950895.2,286046996.7,N
1611950915.1,286046995.2,N
1611950916.0,286046995.2,N
1611950935.8,286046996.9,N
1611950955.6,286046993.3,N
1611950975.5,286046991.2,N
1611950995.3,286046988.0,N
1611951015.2,286046986.5,N
1611951035.9,286046981.2,N
1611951055.7,286046979.1,N
1611951075.6,286046977.5,N
1611951095.4,286046986.4,N
1611951115.2,286046989.9,N
1611951135.1,286046988.5,N
1611951136.0,286046988.5,N
1611951155.8,286046986.8,N
1611951175.7,286046988.8,N
1611951195.5,286046995.3,N
1611951215.3,286046991.1,N
1611951235.2,286046996.9,N
1611951255.9,286046991.7,N
1611951275.7,286046993.6,N
1611951295.6,286046998.0,N
1611951315.4,286046992.4,N
1611951335.3,286046987.2,N
1611951355.1,286046980.5,N
1611951356.0,286046980.5,N
1611951375.8,286046977.5,Y
1611951395.7,286046992.8,P
1611951415.5,286046989.3,P
1611951435.4,286046991.8,P
1611951455.2,286047002.0,N
1611951475.0,286047005.4,N
1611951475.9,286047005.4,N
1611951495.8,286047000.5,N
1611951515.6,286047001.4,N
1611951535.4,286046998.4,N
1611951555.3,286046997.9,N
1611951575.1,286046993.1,N
1611951595.9,286046983.7,N
1611951615.7,286046982.6,N
1611951635.6,286046981.1,N
1611951655.4,286046982.1,N
1611951675.2,286046982.0,N
1611951695.1,286046975.5,N
1611951696.0,286046975.5,N
1611951715.8,286046971.1,Y
1611951735.7,286046979.8,P
1611951755.5,286046982.5,P
1611951775.3,286046988.4,N
1611951795.2,286046982.5,Y
1611951815.0,286046999.1,P
1611951815.9,286046999.1,N
1611951835.8,286046999.1,N
1611951855.6,286047002.6,N
1611951875.4,286046998.2,N
1611951895.3,286046996.0,N
1611951915.1,286046998.4,N
1611951935.8,286046995.6,N
1611951955.7,286046994.1,N
1611951975.5,286046992.5,N
1611951995.4,286046994.7,N
1611952015.2,286047002.7,N
1611952035.0,286047001.3,N
1611952035.9,286047001.3,N
1611952055.8,286046997.8,N
1611952075.6,286046997.7,N
1611952095.4,286047001.0,N
1611952115.3,286047009.5,N
1611952135.1,286047015.3,Y
1611952155.9,286047013.7,P
1611952175.7,286047015.2,N
1611952195.5,286047022.6,N
1611952215.4,286047016.3,N
1611952235.2,286047009.3,N
1611952255.1,286047014.0,N
1611952256.0,286047014.0,N
1611952275.8,286047012.6,N
1611952295.6,286047012.2,N
1611952315.5,286047008.2,N
1611952335.3,286047011.0,N
1611952355.1,286047015.3,N
1611952375.9,286047011.7,N
1611952395.7,286047009.1,N
1611952415.6,286047008.8,N
1611952435.4,286047005.2,N
1611952455.2,286047008.7,N
1611952475.1,286047015.2,Y
1611952476.0,286047015.2,P
1611952495.8,286047001.3,N
1611952515.6,286046999.7,N
1611952535.5,286046997.5,N
1611952555.3,286046996.5,N
1611952575.2,286046999.5,N
1611952595.9,286047000.6,N
1611952615.7,286047000.7,N
1611952635.6,286047003.7,N
1611952655.4,286047000.9,N
1611952675.2,286047001.5,N
1611952695.1,286047001.8,N
1611952696.0,286047001.8,N
1611952715.8,286046999.9,N
1611952735.7,286046995.8,N
1611952755.5,286046993.5,N
1611952775.3,286046994.5,N
1611952795.2,286046992.4,N
1611952815.0,286046993.0,N
1611952815.9,286046993.0,N
1611952835.8,286046992.8,N
1611952855.6,286046990.9,N
1611952875.4,286046992.3,N
1611952895.3,286046995.7,N
1611952915.1,286046992.6,N
1611952935.8,286046991.6,N
1611952955.7,286046990.4,N
1611952975.5,286046992.9,N
1611952995.4,286046991.7,N
1611953015.2,286046987.4,N
1611953035.0,286046993.8,N
1611953035.9,286046993.8,N
1611953055.8,286046994.3,N
1611953075.6,286046990.2,N
1611953095.4,286046988.5,N
1611953115.3,286046988.5,N
1611953135.1,286046984.4,Y
1611953155.9,286046988.3,P
1611953175.7,286046986.8,P
1611953195.5,286046982.9,P
1611953215.4,286046984.8,Y
1611953235.2,286047001.1,P
1611953255.1,286047001.4,N
1611953256.0,286047001.4,N
1611953275.8,286047000.2,N
1611953295.6,286047006.6,N
1611953315.5,286047011.4,N
1611953335.3,286047006.7,N
1611953355.2,286047005.1,N
1611953375.9,286047002.1,N
1611953395.7,286047001.5,N
1611953415.6,286047003.5,N
1611953435.4,286047007.1,N
1611953455.2,286047009.2,N
1611953475.1,286047008.3,N
1611953476.0,286047008.3,N
1611953495.8,286047008.2,N
1611953515.7,286047008.3,N
1611953535.5,286047011.0,N
1611953555.3,286047012.9,N
1611953575.2,286047013.1,N
1611953595.0,286047009.3,N
1611953595.9,286047009.3,N
1611953615.7,286047008.1,N
1611953635.6,286047010.6,N
1611953655.4,286047012.7,N
1611953675.3,286047007.4,N
1611953695.1,286047013.3,N
1611953696.0,286047013.3,N
1611953715.8,286047015.3,N
1611953735.7,286047017.1,Y
1611953755.5,286047002.6,P
1611953775.4,286047000.9,N
1611953795.2,286046998.5,N
1611953815.0,286046998.1,N
1611953815.9,286046998.1,N
1611953835.8,286047001.4,N
1611953855.6,286046999.3,N
1611953875.4,286046999.4,N
1611953895.3,286047006.8,N
1611953915.1,286047003.0,N
1611953935.9,286047003.4,N
1611953955.7,286047001.8,N
1611953975.5,286047007.6,N
1611953995.4,286047011.7,Y
